Location: Unspecified
(52.4292°N, 19.3359°E)
Time: 05:10:08
(UTC+02:00)

A-11 Canister half - Visible Passes

Search period start: 24 May 2024 00:00
Search period end: 03 June 2024 00:00
Orbit: 1514 x 1685 km, 47.2° (Epoch: 23 May)

Date Brightness Start Highest point End Pass type
(mag) Time Alt. Az. Time Alt. Az. Time Alt. Az.
24 May 10.4 00:29:09 13° SE 00:31:19 15° SE 00:35:51 10° E visible
24 May 9.5 02:27:18 16° SSW 02:34:08 40° SSE 02:42:31 10° E visible
25 May 10.4 00:06:51 13° SE 00:08:29 13° SE 00:12:31 10° E visible
25 May 9.5 02:04:59 18° SSW 02:11:14 38° SSE 02:19:32 10° E visible
25 May 10.5 23:44:27 12° SE 23:45:39 12° SE 23:49:04 10° ESE visible
26 May 9.6 01:42:35 20° SSW 01:48:20 37° SE 01:56:34 10° E visible
26 May 9.1 03:42:52 10° WSW 03:52:08 61° SSE 04:01:10 10° E visible
26 May 10.5 23:21:57 11° SE 23:22:49 11° SE 23:25:24 10° ESE visible
27 May 9.6 01:20:04 21° SSW 01:25:25 35° SE 01:33:35 10° E visible
27 May 9.1 03:19:55 10° WSW 03:29:11 60° SSE 03:38:14 10° E visible
27 May 10.5 22:59:20 10° SE 23:00:00 10° ESE 23:01:10 10° ESE visible
28 May 9.6 00:57:26 21° S 01:02:32 34° SE 01:10:36 10° E visible
28 May 9.1 02:56:57 10° WSW 03:06:15 59° SSE 03:15:17 10° E visible
29 May 9.6 00:34:37 20° S 00:39:39 32° SE 00:47:35 10° E visible
29 May 9.1 02:34:00 10° WSW 02:43:18 58° SSE 02:52:21 10° E visible
30 May 9.7 00:11:33 19° S 00:16:45 31° SE 00:24:36 10° E visible
30 May 9.1 02:11:04 10° WSW 02:20:22 57° SSE 02:29:24 10° E visible
30 May 9.7 23:47:59 16° S 23:53:51 30° SE 00:01:36 10° E visible
31 May 9.1 01:48:07 10° WSW 01:57:25 56° SSE 02:06:27 10° E visible
31 May 9.7 23:23:15 10° SSW 23:30:58 28° SE 23:38:34 10° E visible
01 Jun 9.1 01:25:11 10° SW 01:34:29 55° SSE 01:43:30 10° E visible
01 Jun 9.0 03:29:21 10° W 03:38:43 65° S 03:47:50 10° ESE visible
01 Jun 9.8 23:00:26 10° S 23:08:05 27° SE 23:15:33 10° E visible
02 Jun 9.1 01:02:15 10° SW 01:11:33 54° SSE 01:20:33 10° E visible
02 Jun 9.0 03:06:22 10° W 03:15:47 65° S 03:24:55 10° ESE visible
02 Jun 9.8 22:37:43 10° S 22:45:12 26° SE 22:52:30 10° E visible
